This demonstration page uses our WeatherBlox Daily Observations layout. Learn more.

Left ArrowRight Arrow

38.83388, -104.82136

Hourly Observations for January 19, 2017

Temp ( °F °C ) Dew Point ( °F °C ) Humidity (%) Winds ( mph kmh ) Pressure ( in mb ) Visibility ( mi km ) Precip ( " mm )
12:58 am 00:58 Clear 41 4.9 8 -13.4 25 25 WNW 6 9 29.27 991 10 16 0.00 0.00
1:58 am 01:58 Clear 40 4.3 9 -12.6 28 28 NW 7 11 29.30 992 10 16 0.00 0.00
2:58 am 02:58 Clear 42 5.3 6 -14.5 23 23 Calm 29.28 991 10 16 0.00 0.00
3:58 am 03:58 Clear 40 4.5 7 -14.1 25 25 SSW 3 6 29.28 992 10 16 0.00 0.00
4:58 am 04:58 Clear 39 3.9 8 -13.4 27 27 Calm 29.29 992 10 16 0.00 0.00
5:58 am 05:58 Clear 41 4.9 9 -12.7 27 27 WNW 3 6 29.29 992 10 16 0.00 0.00
6:58 am 06:58 Clear 38 3.6 9 -13 29 29 Calm 29.30 992 10 16 0.00 0.00
7:58 am 07:58 Sunny 42 5.4 8 -13.4 25 25 Calm 29.31 993 10 16 0.00 0.00
8:58 am 08:58 Sunny 44 6.5 8 -13.1 23 23 ESE 5 7 29.29 992 10 16 0.00 0.00
9:58 am 09:58 Sunny 46 7.9 13 -10.8 26 26 SE 8 13 29.26 991 10 16 0.00 0.00
10:56 am 10:56 Sunny 47 8.1 13 -10.7 25 25 SE 10 17 29.25 991 10 16 0.00 0.00
11:56 am 11:56 Sunny 48 9 13 -10.5 24 24 SSE 10 17 29.21 989 10 16 0.00 0.00
12:58 pm 12:58 Sunny 49 9.4 14 -10.2 24 24 SSE 13 20 29.17 988 10 16 0.00 0.00
1:58 pm 13:58 Sunny 49 9.2 14 -10 25 25 SE 10 17 29.15 987 10 16 0.00 0.00
2:58 pm 14:58 Sunny 48 9 14 -10.1 25 25 SE 10 17 29.13 987 10 16 0.00 0.00
3:58 pm 15:58 Sunny 45 7.3 14 -10 28 28 SSE 6 9 29.16 988 10 16 0.00 0.00
4:58 pm 16:58 Sunny 43 6.2 15 -9.5 32 32 S 8 13 29.18 988 10 16 0.00 0.00
5:58 pm 17:58 Clear 41 4.9 18 -7.9 39 39 Calm 29.19 989 10 16 0.00 0.00
6:58 pm 18:58 Clear 39 4.1 17 -8.5 40 40 SW 6 9 29.20 989 10 16 0.00 0.00
7:58 pm 19:58 Mostly Cloudy 38 3.4 19 -7.4 45 45 WNW 5 7 29.20 989 10 16 0.00 0.00
8:58 pm 20:58 Mostly Cloudy 39 4.1 17 -8.4 40 40 NNW 8 13 29.15 987 10 16 0.00 0.00
9:58 pm 21:58 Cloudy 40 4.6 17 -8.4 39 39 SSE 3 6 29.12 986 10 16 0.00 0.00
10:58 pm 22:58 Cloudy 38 3.6 17 -8.5 41 41 NW 5 7 29.38 995 10 16 0.00 0.00
11:58 pm 23:58 Mostly Cloudy 38 3.5 17 -8.1 43 43 S 7 11 29.38 995 10 16 0.00 0.00

Powered by AerisWeather